OBJECT C, 64693

Orbit data source: Space-Track

You're viewing an Uncataloged Satellite

Recently launched and/or uncataloged satellites may have evolving metadata. Metadata may include but not limited to: Owner, Maufacturer, Bus, Motor, and Mission.

OBJECT C, 64693 is a satellite in LEO that was launched on Sat, 28 Jun 2025 UTC launched from the Rocket Lab Launch Complex (RLLC). Unknown objects in Earth's orbit typically refer to objects detected orbiting the Earth but have not yet been identified or cataloged. These objects could be anything from previously untracked satellites, spent rocket stages, debris from satellite collisions, or even natural meteoroids temporarily captured by Earth's gravity.

Loading next visibility...
Identifier
64693, 2025-139C
Orbit
LEO
Last TLE update
8 hours ago
Origin
Manufacturer
Rocket Lab
Mission
Spacecraft
Bus & Motor
ELECTRON ST2, Unknown motor
Mass
250 kg wet, ~250 kg dry
Launch date (UTC)
2025-06-28 (3 days ago)
Launch vehicle
Unknown
Launch site
Rocket Lab Launch Complex (RLLC)
Object type
Unknown
Shape & HBR
Unknown
Radar Cross Section
RCS unknown

Expand to show TLE details & history

TLE from 8 hours ago
0 OBJECT C
1 64693U 25140C   25182.09583191  .01460770  14327-5  12666-2 0  9994
2 64693  95.9928  30.0816 0321565 214.5471 143.4520 15.57195573   430
Epoch: 2025-07-01T02:17Z
TLE epoch observation values (Epoch: 2025-07-01T02:17:59.877Z)
Latitude
0.00002°
Longitude
76.18591°
Altitude
576.38 km
Speed
7.473 km/s
True Right ascension
02h 00m 19s
True Declination
0° 00' 00"
Sunlit
Object was in daylight at epoch
Visualization orbit readout
Latitude
53.42465°
Longitude
-95.43569°
Altitude
383.557 km
Speed
7.695 km/s
Apparent Right ascension
12h 09m 14s
Apparent Declination
10° 02' 48"
Sunlit
Object is in daylight
Visualization observer readout
Local Sidereal Time
22:12:53
Azimuth
325.089° NNW
Elevation
-33.232°
Doppler factor
1
Orbital elements
Apogee altitude
610.358 km
Perigee altitude
174.909 km
Semi-major axis
6,770.771 km
Eccentricity
0.03216
Inclination
95.9928°
RAAN
30.0816°
Arg. of periapsis
214.5471°
True anomaly
Unknown
Mean anomaly
143.452°
Eccentric anomaly
Unknown
Mean motion
3.8957 °/min
Orbital period
92.41 mins
BSTAR
0.0012666
Loading maneuver chart data...
Loading SW <> Apogee altitude chart data...
Loading historical data...
Loading historical data...
Loading historical data...
Loading historical data...
Loading historical data...
Loading historical data...
Loading historical data...
Other satellites on launch #139 in the year 2025 (2025-06-28 UTC)

OBJECT C Visibility forecast

Observer location: undefined°, undefined°

Span
Click to sort rows by Start time (UTC) header in descending order
Start Az.
Max El. time (UTC)
Max El. Az.
Max El.
End time (UTC)
End Az.
6 mins2025-07-01 13:14:25.414Z120.213° SE2025-07-01 13:17:25.414Z62.417° ENE23.855°2025-07-01 13:20:25.414Z16.233° NNE
5 mins2025-07-01 14:46:25.414Z223.566° SW2025-07-01 14:48:25.414Z262.309° W23.764°2025-07-01 14:51:25.414Z317.179° NNW
|